TimeEDT,TemperatureF,Dew PointF,Humidity,Sea Level PressureIn,VisibilityMPH,Wind Direction,Wind SpeedMPH,Gust SpeedMPH,PrecipitationIn,Events,Conditions,WindDirDegrees,DateUTC
12:54 AM,66.9,66.0,97,30.00,-9999.0,Calm,Calm,-,N/A,,Unknown,0,2013-06-25 04:54:00
1:54 AM,66.9,64.9,93,29.98,-9999.0,Calm,Calm,-,N/A,,Unknown,0,2013-06-25 05:54:00
2:00 AM,-9999,-9999,N/A,-9999,-9999.0,North,-9999.0,-,N/A,,Unknown,0,2013-06-25 06:00:00
2:54 AM,66.9,64.9,93,29.96,-9999.0,Calm,Calm,-,N/A,,Unknown,0,2013-06-25 06:54:00
3:54 AM,66.0,64.9,96,29.96,-9999.0,Calm,Calm,-,N/A,,Unknown,0,2013-06-25 07:54:00
4:54 AM,66.0,64.0,93,29.96,-9999.0,Calm,Calm,-,N/A,,Unknown,0,2013-06-25 08:54:00
5:54 AM,64.9,64.0,97,29.96,-9999.0,Calm,Calm,-,N/A,,Unknown,0,2013-06-25 09:54:00
6:54 AM,68.0,66.0,93,29.96,-9999.0,Calm,Calm,-,N/A,,Unknown,0,2013-06-25 10:54:00
7:54 AM,71.1,68.0,90,29.97,-9999.0,Calm,Calm,-,N/A,,Unknown,0,2013-06-25 11:54:00
8:54 AM,75.0,69.1,82,29.96,-9999.0,Calm,Calm,-,N/A,,Unknown,0,2013-06-25 12:54:00
9:54 AM,79.0,70.0,74,29.95,-9999.0,SSW,3.5,-,N/A,,Unknown,210,2013-06-25 13:54:00
10:54 AM,82.9,70.0,65,29.95,-9999.0,Variable,3.5,-,N/A,,Unknown,0,2013-06-25 14:54:00
11:54 AM,84.9,70.0,61,29.94,-9999.0,Variable,6.9,-,N/A,,Unknown,0,2013-06-25 15:54:00
12:54 PM,87.1,69.1,55,29.91,-9999.0,Variable,6.9,-,N/A,,Unknown,0,2013-06-25 16:54:00
1:54 PM,86.0,69.1,57,29.89,-9999.0,SW,11.5,16.1,N/A,,Unknown,220,2013-06-25 17:54:00
2:54 PM,84.9,69.1,59,29.87,-9999.0,SW,9.2,-,N/A,,Unknown,220,2013-06-25 18:54:00
3:54 PM,82.9,70.0,65,29.87,-9999.0,SSW,5.8,-,N/A,,Unknown,210,2013-06-25 19:54:00
4:54 PM,82.9,70.0,65,29.85,-9999.0,Variable,5.8,-,N/A,,Unknown,0,2013-06-25 20:54:00
5:54 PM,84.0,69.1,61,29.81,-9999.0,SW,11.5,17.3,N/A,,Unknown,220,2013-06-25 21:54:00
6:54 PM,82.0,66.9,60,29.82,-9999.0,SSW,5.8,-,N/A,,Unknown,210,2013-06-25 22:54:00
7:54 PM,81.0,66.0,60,29.84,-9999.0,SSW,3.5,-,N/A,,Unknown,210,2013-06-25 23:54:00
8:54 PM,78.1,66.9,68,29.84,-9999.0,South,3.5,-,N/A,,Unknown,190,2013-06-26 00:54:00
9:54 PM,75.0,66.9,76,29.84,-9999.0,Calm,Calm,-,N/A,,Unknown,0,2013-06-26 01:54:00
10:54 PM,73.0,69.1,87,29.85,-9999.0,Calm,Calm,-,0.16,,Unknown,0,2013-06-26 02:54:00
11:54 PM,72.0,69.1,91,29.82,-9999.0,Calm,Calm,-,0.01,,Unknown,0,2013-06-26 03:54:00